Simultaneous Nadir Overpasses (SNOs) Predictions

Prediction of SNOs between GOES-16 and NOAA-19 Satellite Orbit:

Table of predicted SNOs for the next 14.0 days since TLE Epoch: 1/13/2017
Index Date Time (GOES-16) GOES-16 Lat,Lon NOAA-19 Lat,Lon Distance(km) Time Diff (sec)
1 01/13/2017 21:08:01 -0.03, -89.47 -0.63, -92.08 297.52 80
2 01/14/2017 20:59:16 -0.03, -89.47 0.03, -89.30 19.77 80
3 01/15/2017 20:47:51 -0.03, -89.48 0.63, -86.52 337.08 80
4 01/18/2017 09:09:31 0.03, -89.49 0.52, -91.69 250.11 80
5 01/19/2017 08:55:26 0.03, -89.50 -0.13, -88.91 67.49 80
6 01/20/2017 08:44:02 0.03, -89.50 -0.77, -86.14 385.11 80
7 01/22/2017 21:05:44 -0.04, -89.52 -0.44, -91.30 203.15 80
8 01/23/2017 20:56:58 -0.04, -89.53 0.17, -88.52 114.99 80
9 01/24/2017 20:45:34 -0.04, -89.54 0.83, -85.75 433.09 80
10 01/26/2017 09:18:39 0.05, -89.56 1.01, -93.69 470.98 80
11 01/27/2017 09:07:15 0.05, -89.57 0.35, -90.91 152.90 80




NCC Satellite Simultaneous Nadir Overpasses (SNOs) Prediction Service
